Location: *
(37.5724°S, 58.0067°E)
Time: 18:41:55
(UTC+00:00)

NOSS 3-1 (A) - Pass Details

Date: 20 June 2021
Orbit: 729 x 1483 km, 63.4° (Epoch: 23 July)

Event Time Altitude Azimuth Distance (km) Brightness Sun altitude
Rises 16:14:50 0° 208° (SSW) 3,829 6.9 -38.3°
Reaches altitude 10° 16:17:54 10° 200° (SSW) 2,747 6.0 -38.9°
Enters shadow 16:17:58 10° 199° (SSW) 2,721 6.0 -39.0°
